FW1189 Weather Reports


time (UTC)temp
C
wind
direction
speed
KPH
gust
KPH
rain 1hr
cm
rain 24hr
cm
rain mn
cm
humidity
%
barometer
mb
20260505041503 2 346 4.8 11.3 0.18 0.20 0.18 92 1011.3
20260505041225 2 341 4.8 11.3 0.18 0.20 0.18 92 1011.2
20260505040903 2 338 4.8 11.3 0.15 0.18 0.15 92 1011.2
20260505040603 2 343 4.8 11.3 0.15 0.18 0.15 92 1011.4
20260505040325 2 344 4.8 9.7 0.13 0.15 0.13 92 1011.2
20260505040004 2 345 3.2 9.7 0.13 0.15 0.13 92 1011.2
20260505035703 2 339 3.2 9.7 0.10 0.13 0.10 93 1011.4
20260505035424 2 340 3.2 6.4 0.10 0.13 0.10 93 1011.4
20260505035102 2 347 3.2 6.4 0.10 0.13 0.10 92 1011.5
20260505034803 2 349 1.6 6.4 0.10 0.13 0.10 92 1011.3
20260505034503 2 345 1.6 6.4 0.10 0.13 0.10 92 1011.3
20260505034203 2 337 1.6 3.2 0.10 0.13 0.10 92 1011.3
20260505033903 2 337 1.6 3.2 0.05 0.10 0.05 91 1011.4
20260505033603 2 337 1.6 3.2 0.05 0.10 0.05 90 1011.4
20260505033303 2 337 0.0 3.2 0.03 0.05 0.03 89 1011.4
20260505033003 2 337 0.0 3.2 0.03 0.05 0.03 89 1011.2
20260505032705 2 0 0.0 3.2 0.03 0.05 0.03 89 1011.4
20260505032403 2 0 0.0 3.2 0.00 0.03 0.00 90 1011.2
20260505032103 2 0 0.0 3.2 0.00 0.03 0.00 90 1011.3
20260505031803 2 67 0.0 3.2 0.00 0.03 0.00 89 1011.3
20260505031503 2 67 0.0 3.2 0.00 0.03 0.00 89 1011.4
20260505031224 2 67 0.0 3.2 0.00 0.03 0.00 89 1011.1
20260505030903 2 67 0.0 3.2 0.00 0.03 0.00 89 1011.2
20260505030603 2 67 0.0 3.2 0.00 0.03 0.00 89 1011.4
20260505030303 2 67 0.0 3.2 0.00 0.03 0.00 89 1011.4
20260505030003 2 0 0.0 3.2 0.00 0.03 0.00 89 1011.4
20260505025703 2 0 0.0 3.2 0.00 0.03 0.00 88 1011.5
20260505025403 2 87 0.0 3.2 0.00 0.03 0.00 88 1011.3
20260505025103 2 88 1.6 3.2 0.00 0.03 0.00 88 1011.4
20260505024803 2 90 1.6 3.2 0.00 0.03 0.00 88 1011.6
20260505024503 2 86 1.6 6.4 0.00 0.03 0.00 88 1011.6
20260505024202 2 87 3.2 9.7 0.00 0.03 0.00 88 1011.7
20260505023903 2 90 4.8 9.7 0.00 0.03 0.00 88 1011.6
20260505023603 2 95 4.8 9.7 0.00 0.03 0.00 88 1011.6
20260505023303 3 98 3.2 9.7 0.00 0.03 0.00 88 1011.8
20260505023003 3 110 1.6 6.4 0.00 0.03 0.00 87 1011.9
20260505022702 3 0 0.0 3.2 0.00 0.03 0.00 86 1011.9
20260505022403 3 0 0.0 0.0 0.00 0.03 0.00 85 1011.7
20260505022102 3 0 0.0 0.0 0.00 0.03 0.00 84 1011.9
20260505021803 3 0 0.0 0.0 0.00 0.03 0.00 84 1012.0
20260505021524 3 315 0.0 3.2 0.00 0.03 0.00 84 1011.9
20260505021203 3 315 0.0 3.2 0.00 0.03 0.00 83 1012.2
20260505020903 3 315 0.0 3.2 0.00 0.03 0.00 84 1012.1
20260505020603 3 315 0.0 3.2 0.00 0.03 0.00 84 1012.1
20260505020304 3 0 0.0 3.2 0.00 0.03 0.00 85 1012.4
20260505020003 3 0 0.0 3.2 0.00 0.03 0.00 83 1012.2
20260505015703 3 0 0.0 3.2 0.00 0.03 0.00 82 1012.3
20260505015403 3 0 0.0 3.2 0.00 0.03 0.00 82 1012.3
20260505015103 3 337 0.0 3.2 0.00 0.03 0.00 81 1012.4
20260505014803 3 337 0.0 3.2 0.00 0.03 0.00 81 1012.5
20260505014524 3 331 0.0 3.2 0.00 0.03 0.00 81 1012.8
20260505014204 3 320 0.0 3.2 0.00 0.03 0.00 80 1012.5
20260505013902 3 0 0.0 3.2 0.00 0.03 0.00 82 1012.5
20260505013603 3 326 0.0 3.2 0.00 0.03 0.00 81 1012.5
20260505013303 3 329 0.0 3.2 0.00 0.03 0.00 80 1012.8
20260505013024 3 332 0.0 3.2 0.00 0.03 0.00 80 1012.6
20260505012703 3 355 0.0 3.2 0.00 0.03 0.00 80 1012.5
20260505012424 3 64 0.0 6.4 0.00 0.03 0.00 79 1012.7
20260505012102 3 77 1.6 6.4 0.00 0.03 0.00 77 1012.7
20260505011803 3 72 1.6 6.4 0.00 0.03 0.00 77 1012.7
20260505011504 3 68 0.0 6.4 0.00 0.03 0.00 77 1012.8
20260505011224 3 68 0.0 6.4 0.00 0.03 0.00 76 1012.8
20260505010903 3 0 0.0 3.2 0.00 0.03 0.00 78 1012.9
20260505010602 3 75 0.0 3.2 0.00 0.03 0.00 78 1012.8
20260505010302 3 106 0.0 6.4 0.00 0.03 0.00 77 1013.1
20260505010003 4 94 1.6 6.4 0.00 0.03 0.00 75 1013.2
20260505005702 4 96 3.2 6.4 0.00 0.03 0.00 74 1013.1
20260505005403 4 96 3.2 6.4 0.00 0.03 0.00 74 1013.2
20260505005103 3 94 3.2 6.4 0.00 0.03 0.00 74 1013.0
20260505004802 3 97 3.2 6.4 0.00 0.03 0.00 75 1013.3
20260505004524 3 91 3.2 6.4 0.00 0.03 0.00 78 1013.2
20260505004203 3 90 1.6 6.4 0.00 0.03 0.00 78 1013.3
20260505003903 3 92 1.6 6.4 0.00 0.03 0.00 78 1013.2
20260505003624 3 82 0.0 6.4 0.00 0.03 0.00 78 1013.4
20260505003323 3 80 0.0 6.4 0.00 0.03 0.00 78 1013.5
20260505003003 3 83 1.6 6.4 0.00 0.03 0.00 78 1013.4
20260505002703 3 89 1.6 6.4 0.00 0.03 0.00 81 1013.5
20260505002424 3 94 1.6 6.4 0.00 0.03 0.00 81 1013.3
20260505002103 3 98 1.6 6.4 0.00 0.03 0.00 81 1013.6
20260505001803 3 0 0.0 0.0 0.00 0.03 0.00 80 1013.5
20260505001502 3 0 0.0 0.0 0.00 0.03 0.00 80 1013.5
20260505001203 3 0 0.0 0.0 0.00 0.03 0.00 79 1013.5
20260505000902 3 0 0.0 3.2 0.00 0.03 0.00 79 1013.5
20260505000603 3 90 0.0 3.2 0.00 0.03 0.00 77 1013.5
20260505000303 3 90 1.6 9.7 0.00 0.03 0.00 77 1013.8
20260505000003 3 94 3.2 9.7 0.00 0.03 0.00 77 1013.8
20260504235702 3 97 4.8 9.7 0.00 0.03 0.00 78 1013.8
20260504235402 3 100 4.8 9.7 0.00 0.03 0.00 80 1013.7
20260504235124 3 104 3.2 6.4 0.00 0.03 0.00 81 1014.1
20260504234824 3 105 1.6 6.4 0.00 0.03 0.00 81 1014.1
20260504234503 3 100 1.6 6.4 0.00 0.03 0.00 81 1014.0
20260504234203 4 100 3.2 9.7 0.00 0.03 0.00 81 1014.1
20260504233903 4 99 4.8 9.7 0.00 0.03 0.00 80 1014.1
20260504233604 4 96 4.8 9.7 0.00 0.03 0.00 79 1014.4
20260504233302 5 94 4.8 9.7 0.00 0.03 0.00 75 1014.2
20260504233003 5 86 4.8 9.7 0.00 0.03 0.00 72 1014.4
20260504232703 5 79 4.8 6.4 0.00 0.03 0.00 71 1014.0
20260504232402 5 71 3.2 6.4 0.00 0.03 0.00 71 1014.3
20260504232102 5 62 1.6 6.4 0.00 0.03 0.00 70 1014.3
20260504231803 4 55 0.0 6.4 0.00 0.03 0.00 74 1014.5
20260504231503 4 54 0.0 6.4 0.00 0.03 0.00 76 1014.5
20260504231203 4 40 1.6 9.7 0.00 0.03 0.00 76 1014.6
20260504230902 5 16 1.6 11.3 0.00 0.03 0.00 75 1014.6
20260504230602 5 352 1.6 11.3 0.00 0.03 0.00 76 1014.6
20260504230303 5 343 1.6 11.3 0.00 0.03 0.00 75 1014.7
20260504230003 5 328 1.6 11.3 0.00 0.03 0.00 74 1014.8
20260504225703 5 323 0.0 3.2 0.00 0.03 0.00 77 1014.8
20260504225403 5 307 0.0 3.2 0.00 0.03 0.00 76 1014.8
20260504225103 5 294 0.0 3.2 0.00 0.03 0.00 75 1014.9
20260504224803 5 292 1.6 6.4 0.00 0.03 0.00 75 1014.8
20260504224524 5 302 1.6 6.4 0.00 0.03 0.00 77 1014.9
20260504224203 5 330 1.6 6.4 0.00 0.03 0.00 77 1015.0
20260504223903 5 47 3.2 6.4 0.00 0.03 0.00 77 1015.0
20260504223603 5 77 1.6 6.4 0.00 0.03 0.00 78 1014.9
20260504223303 4 82 3.2 6.4 0.00 0.03 0.00 76 1015.1
20260504223024 4 86 3.2 6.4 0.00 0.03 0.00 77 1015.2
20260504222723 4 84 3.2 6.4 0.00 0.03 0.00 79 1015.2
20260504222402 4 87 3.2 6.4 0.00 0.03 0.00 78 1015.0
20260504222102 4 87 1.6 6.4 0.00 0.03 0.00 79 1015.0
20260504221803 4 79 0.0 6.4 0.00 0.03 0.00 79 1015.1
20260504221503 4 0 0.0 3.2 0.00 0.03 0.00 79 1015.1
20260504221202 4 0 0.0 3.2 0.00 0.03 0.00 79 1015.0
20260504220902 4 0 0.0 3.2 0.00 0.03 0.00 79 1014.9
20260504220604 4 0 0.0 3.2 0.00 0.03 0.00 80 1015.0
20260504220303 4 0 0.0 3.2 0.00 0.03 0.00 81 1015.1
20260504220017 4 0 0.0 3.2 0.00 0.03 0.00 81 1015.1
20260504215704 4 343 0.0 6.4 0.00 0.03 0.03 80 1015.3
20260504215404 4 346 0.0 6.4 0.00 0.03 0.03 80 1015.1
20260504215103 4 344 0.0 6.4 0.00 0.03 0.03 78 1015.2
20260504214802 4 341 0.0 6.4 0.00 0.03 0.03 80 1015.2
20260504214502 4 339 0.0 3.2 0.00 0.03 0.03 80 1015.3
20260504214223 4 333 1.6 6.4 0.00 0.03 0.03 80 1015.4
20260504213903 4 334 1.6 6.4 0.00 0.03 0.03 81 1015.4
20260504213603 4 341 1.6 6.4 0.00 0.03 0.03 80 1015.5
20260504213303 4 14 1.6 6.4 0.00 0.03 0.03 81 1015.6
20260504213023 3 43 0.0 6.4 0.00 0.03 0.03 83 1015.5
20260504212703 3 21 1.6 9.7 0.00 0.03 0.03 84 1015.5
20260504212424 3 31 1.6 14.5 0.00 0.03 0.03 85 1015.4
20260504212103 3 357 6.4 20.9 0.00 0.03 0.03 85 1015.4
20260504211802 3 347 8.0 20.9 0.00 0.03 0.03 86 1015.5
20260504211502 3 341 9.7 20.9 0.00 0.03 0.03 86 1015.4
20260504211224 3 340 9.7 20.9 0.00 0.03 0.03 86 1015.7
20260504210903 3 346 8.0 17.7 0.00 0.03 0.03 86 1015.5
20260504210602 3 344 8.0 17.7 0.00 0.03 0.03 86 1015.6
20260504210324 3 347 6.4 17.7 0.00 0.03 0.03 87 1015.5
20260504210003 3 341 3.2 11.3 0.00 0.03 0.03 88 1015.6
20260504205723 3 343 3.2 11.3 0.00 0.03 0.03 89 1015.8
20260504205402 3 340 1.6 6.4 0.00 0.03 0.03 90 1015.9
20260504205102 3 332 1.6 6.4 0.00 0.03 0.03 90 1015.9
20260504204802 3 329 1.6 6.4 0.00 0.03 0.03 90 1015.9
20260504204502 3 324 1.6 6.4 0.00 0.03 0.03 89 1016.0
20260504204223 3 325 1.6 6.4 0.00 0.03 0.03 89 1016.1
20260504203903 3 332 1.6 6.4 0.00 0.03 0.03 89 1016.2
20260504203602 3 335 0.0 6.4 0.00 0.03 0.03 89 1016.0
20260504203302 3 19 0.0 6.4 0.00 0.03 0.03 89 1015.8
20260504203002 3 82 1.6 12.9 0.00 0.03 0.03 89 1015.9
20260504202702 3 90 4.8 14.5 0.00 0.03 0.03 87 1016.0
20260504202402 3 90 6.4 14.5 0.00 0.03 0.03 87 1015.8
20260504202102 3 90 6.4 14.5 0.00 0.03 0.03 86 1015.9
20260504201802 3 92 4.8 11.3 0.00 0.03 0.03 88 1015.9
20260504201503 3 96 3.2 6.4 0.00 0.03 0.03 88 1015.8
20260504201202 3 101 3.2 6.4 0.00 0.03 0.03 88 1016.0
20260504200902 3 106 1.6 6.4 0.00 0.03 0.03 89 1015.7
20260504200602 3 105 1.6 6.4 0.00 0.03 0.03 88 1016.1
20260504200302 3 106 0.0 3.2 0.00 0.03 0.03 88 1016.1
20260504200003 3 83 0.0 3.2 0.00 0.03 0.03 88 1015.8
20260504195703 3 0 0.0 3.2 0.00 0.03 0.03 88 1015.9
20260504195423 3 77 0.0 3.2 0.00 0.03 0.03 88 1015.9
20260504195102 3 78 0.0 3.2 0.00 0.03 0.03 87 1016.0
20260504194802 3 78 0.0 3.2 0.00 0.03 0.03 86 1015.8
20260504194523 3 67 0.0 3.2 0.03 0.03 0.03 89 1015.8
20260504194202 3 0 0.0 0.0 0.03 0.03 0.03 89 1015.8
20260504193902 3 0 0.0 0.0 0.03 0.03 0.03 88 1015.9
20260504193623 3 0 0.0 0.0 0.03 0.03 0.03 88 1015.8
20260504193303 3 0 0.0 0.0 0.03 0.03 0.03 88 1015.8
20260504193002 3 0 0.0 3.2 0.03 0.03 0.03 88 1015.6
20260504192702 3 0 0.0 3.2 0.03 0.03 0.03 88 1015.6
20260504192402 3 0 0.0 3.2 0.03 0.03 0.03 89 1015.6
20260504192102 3 0 0.0 3.2 0.03 0.03 0.03 89 1015.8
20260504191823 3 0 0.0 3.2 0.03 0.03 0.03 89 1015.7
20260504191502 3 0 0.0 0.0 0.03 0.03 0.03 88 1015.8
20260504191225 3 70 0.0 3.2 0.03 0.03 0.03 88 1015.6
20260504190903 3 75 1.6 6.4 0.03 0.03 0.03 88 1015.6
20260504190603 4 79 3.2 9.7 0.03 0.03 0.03 87 1015.6
20260504190303 4 81 4.8 9.7 0.03 0.03 0.03 86 1015.8
20260504190002 4 86 6.4 12.9 0.03 0.03 0.03 85 1015.6
20260504185703 4 87 8.0 12.9 0.03 0.03 0.03 85 1015.5
20260504185403 4 85 6.4 12.9 0.03 0.03 0.03 85 1015.7
20260504185103 4 85 6.4 12.9 0.03 0.03 0.03 84 1015.8
20260504184824 4 78 4.8 12.9 0.03 0.03 0.03 83 1015.5
20260504184524 4 79 4.8 12.9 0.00 0.00 0.00 82 1015.5
20260504184202 4 74 6.4 14.5 0.00 0.00 0.00 80 1015.5
20260504183925 4 75 4.8 14.5 0.00 0.00 0.00 80 1015.6
20260504183623 4 76 4.8 14.5 0.00 0.00 0.00 78 1015.6
20260504183302 4 84 6.4 17.7 0.00 0.00 0.00 79 1015.5
20260504183003 5 87 9.7 17.7 0.00 0.00 0.00 78 1015.5
20260504182702 5 85 9.7 17.7 0.00 0.00 0.00 77 1015.7
20260504182423 5 81 9.7 17.7 0.00 0.00 0.00 74 1015.6
20260504182102 5 78 8.0 17.7 0.00 0.00 0.00 72 1015.5
20260504181823 5 76 8.0 17.7 0.00 0.00 0.00 72 1015.5
20260504181503 6 78 6.4 17.7 0.00 0.00 0.00 71 1015.4
20260504181224 6 76 4.8 14.5 0.00 0.00 0.00 69 1015.3
20260504180903 6 77 3.2 6.4 0.00 0.00 0.00 70 1015.5
20260504180623 6 81 3.2 6.4 0.00 0.00 0.00 67 1015.3
20260504180302 6 84 3.2 6.4 0.00 0.00 0.00 65 1015.5
20260504180003 6 86 1.6 6.4 0.00 0.00 0.00 64 1015.4
20260504175702 6 86 1.6 6.4 0.00 0.00 0.00 65 1015.4
20260504175402 6 79 0.0 3.2 0.00 0.00 0.00 69 1015.2
20260504175102 6 62 0.0 3.2 0.00 0.00 0.00 69 1015.3
20260504174823 6 60 0.0 3.2 0.00 0.00 0.00 65 1015.3
20260504174523 6 67 1.6 6.4 0.00 0.00 0.00 67 1015.2
20260504174202 6 81 3.2 11.3 0.00 0.00 0.00 66 1015.1
20260504173902 6 83 3.2 11.3 0.00 0.00 0.00 64 1015.2
20260504173602 6 88 4.8 11.3 0.00 0.00 0.00 61 1015.2
20260504173303 6 93 6.4 20.9 0.00 0.00 0.00 62 1015.2
20260504173004 6 93 9.7 20.9 0.00 0.00 0.00 61 1015.0
20260504172724 6 91 11.3 20.9 0.00 0.00 0.00 61 1015.1
20260504172402 6 91 14.5 24.1 0.00 0.00 0.00 59 1015.0
20260504172103 6 92 12.9 24.1 0.00 0.00 0.00 61 1015.0
20260504171802 6 95 11.3 24.1 0.00 0.00 0.00 60 1014.9
20260504171504 6 98 11.3 24.1 0.00 0.00 0.00 63 1014.9
20260504171223 6 96 9.7 20.9 0.00 0.00 0.00 65 1015.1
20260504170902 7 94 9.7 20.9 0.00 0.00 0.00 65 1015.0
20260504170602 6 89 9.7 20.9 0.00 0.00 0.00 63 1014.9
20260504170302 7 88 9.7 17.7 0.00 0.00 0.00 67 1015.0
20260504160303 6 340 1.6 6.4 0.00 0.00 0.00 72 1015.3
20260504150902 6 0 0.0 0.0 0.00 0.00 0.00 78 1015.8
20260504150624 6 0 0.0 0.0 0.00 0.00 0.00 78 1015.7
20260504150302 6 0 0.0 3.2 0.00 0.00 0.00 78 1015.6
20260504141202 6 79 1.6 6.4 0.00 0.00 0.00 77 1016.0
20260504140902 6 53 1.6 6.4 0.00 0.00 0.00 75 1016.0
20260504140602 6 25 0.0 6.4 0.00 0.00 0.00 75 1016.1
20260504140303 6 29 0.0 6.4 0.00 0.00 0.00 77 1016.0
20260504130623 6 87 3.2 14.5 0.00 0.00 0.00 80 1016.6
20260504130323 6 87 3.2 14.5 0.00 0.00 0.00 76 1016.5
20260504120301 8 14 1.6 9.7 0.00 0.00 0.00 66 1016.2
20260504110601 8 154 4.8 12.9 0.00 0.00 0.00 62 1016.2
20260504110302 9 170 3.2 12.9 0.00 0.00 0.00 64 1016.4
20260504100602 7 90 19.3 27.4 0.00 0.00 0.00 62 1016.2
20260504100301 8 91 19.3 27.4 0.00 0.00 0.00 61 1016.2
20260504081802 8 101 8.0 17.7 0.00 0.00 0.00 58 1015.8
20260504081502 8 109 9.7 17.7 0.00 0.00 0.00 60 1016.0
20260504081201 8 110 8.0 17.7 0.00 0.00 0.00 60 1015.9
20260504080902 8 108 9.7 22.5 0.00 0.00 0.00 59 1016.0
20260504080602 8 104 9.7 22.5 0.00 0.00 0.00 60 1015.9
20260504080323 8 101 9.7 22.5 0.00 0.00 0.00 60 1015.8
20260504070302 8 106 9.7 22.5 0.00 0.00 0.00 59 1015.6
20260504050602 6 337 1.6 6.4 0.00 0.00 0.00 67 1015.0
20260504050302 6 337 1.6 3.2 0.00 0.00 0.00 68 1015.0
20260504050002 6 326 0.0 3.2 0.00 0.00 0.00 68 1014.9
20260504045702 6 287 0.0 3.2 0.00 0.00 0.00 67 1015.1